Weather History for Pittsburgh, PA

Change the Weather History Date:

Tuesday, June 18, 2013

  Actual Average Record
Temperature  
Mean Temperature 71 °F 70 °F  
Max Temperature 79 °F 80 °F 97 °F (1994)
Min Temperature 62 °F 59 °F 43 °F (1986)
Degree Days  
Heating Degree Days 0 1  
Month to date heating degree days 16 32  
Since 1 June heating degree days 16 32  
Since 1 July heating degree days 5566 5704  
Cooling Degree Days 6 5  
Month to date cooling degree days 67 72  
Year to date cooling degree days 171 124  
Since 1 June cooling degree days 67 72  
Growing Degree Days 22 (Base 50)    
Moisture  
Dew Point 59 °F    
Average Humidity 67    
Maximum Humidity 78    
Minimum Humidity 56    
Precipitation  
Precipitation 0.05 in 0.15 in 2.25 in (1996)
Month to date precipitation 2.84 2.57  
Year to date precipitation 15.18 17.67  
Snow  
Snow 0.00 in 0.00 in 0.00 in (2002)
Month to date snowfall 0.0 0.0  
Since 1 July snowfall 57.4 41.4  
Snow Depth 0.00 in    
Sea Level Pressure  
Sea Level Pressure 29.91 in    
Wind  
Wind Speed 5 mph (NE)    
Max Wind Speed 18 mph    
Max Gust Speed 23 mph    
Visibility 10 miles    
Events Rain    
T = Trace of Precipitation, MM = Missing Value Source: NWS Daily Summary

Daily Weather History Graph

Daily Weather History Graph

Search for Another Location

Airport:

Trip Planner

Search our weather history database for the weather conditions in past years. The results will help you decide how hot, cold, wet, or windy it might be!

Date:

Astronomy

Jun. 18, 2013 Rise Set
Actual Time 5:50 AM EDT 8:54 PM EDT
Civil Twilight 5:16 AM EDT 9:27 PM EDT
Nautical Twilight 4:34 AM EDT 10:09 PM EDT
Astronomical Twilight 3:44 AM EDT 10:59 PM EDT
Moon 3:36 PM EDT (6/18) 1:58 AM EDT (6/18)
Length of Visible Light 16h 10m
Length of Day
15h 03m
Waxing Gibbous, 70% of the Moon is Illuminated
Jun 18
Waxing Gibbous
Jun 23
Full
Jun 30
Last Quarter
Jul 8
New
Jul 15
First Quarter

Hourly Weather History & Observations

Time (EDT) Temp. Dew Point Humidity Pressure Visibility Wind Dir Wind Speed Gust Speed Precip Events Conditions
12:51 AM 68.0 °F 61.0 °F 78% 29.92 in 10.0 mi Calm Calm - N/A   Overcast
1:51 AM 68.0 °F 57.0 °F 68% 29.91 in 10.0 mi Calm Calm - N/A   Overcast
2:51 AM 66.9 °F 59.0 °F 76% 29.90 in 10.0 mi Calm Calm - N/A   Overcast
3:51 AM 66.9 °F 57.0 °F 70% 29.90 in 10.0 mi Calm Calm - N/A   Overcast
4:51 AM 66.0 °F 55.9 °F 70% 29.89 in 10.0 mi Calm Calm - N/A   Overcast
5:51 AM 64.9 °F 57.0 °F 75% 29.91 in 10.0 mi Calm Calm - N/A   Overcast
6:51 AM 64.9 °F 57.0 °F 75% 29.91 in 10.0 mi ESE 3.5 mph - N/A   Overcast
7:51 AM 66.0 °F 57.0 °F 73% 29.91 in 10.0 mi ENE 3.5 mph - N/A   Overcast
8:51 AM 68.0 °F 57.0 °F 68% 29.92 in 10.0 mi East 4.6 mph - N/A   Overcast
9:51 AM 70.0 °F 57.0 °F 63% 29.91 in 10.0 mi ESE 5.8 mph - N/A   Overcast
10:51 AM 72.0 °F 57.9 °F 61% 29.90 in 10.0 mi Calm Calm - N/A   Overcast
11:51 AM 73.0 °F 59.0 °F 61% 29.91 in 10.0 mi Calm Calm - N/A   Overcast
12:51 PM 75.0 °F 59.0 °F 57% 29.91 in 10.0 mi Calm Calm - N/A   Overcast
1:51 PM 77.0 °F 62.1 °F 60% 29.90 in 10.0 mi Calm Calm - N/A   Overcast
2:51 PM 77.0 °F 61.0 °F 58% 29.88 in 10.0 mi ENE 4.6 mph - N/A   Overcast
3:51 PM 73.0 °F 64.9 °F 76% 29.88 in 7.0 mi NNE 11.5 mph - 0.04 in Rain Light Rain
4:51 PM 69.1 °F 62.1 °F 78% 29.89 in 9.0 mi SSW 10.4 mph - 0.01 in   Overcast
5:29 PM 71.6 °F 62.6 °F 73% 29.88 in 9.0 mi SSW 9.2 mph - N/A   Mostly Cloudy
5:51 PM 73.0 °F 62.1 °F 68% 29.88 in 9.0 mi SSW 5.8 mph - N/A   Mostly Cloudy
6:51 PM 72.0 °F 63.0 °F 73% 29.88 in 9.0 mi SW 4.6 mph - N/A   Mostly Cloudy
7:51 PM 73.9 °F 57.9 °F 57% 29.90 in 10.0 mi North 13.8 mph 20.7 mph N/A   Partly Cloudy
8:51 PM 71.1 °F 57.9 °F 63% 29.92 in 10.0 mi NNW 13.8 mph - N/A   Scattered Clouds
9:51 PM 68.0 °F 55.9 °F 65% 29.94 in 10.0 mi NNW 11.5 mph - N/A   Mostly Cloudy
10:51 PM 66.0 °F 55.0 °F 68% 29.97 in 10.0 mi North 10.4 mph - N/A   Overcast
11:51 PM 64.0 °F 54.0 °F 70% 29.99 in 10.0 mi North 12.7 mph - N/A   Overcast